DW0427 Weather Reports


time (UTC)temp
C
wind
direction
speed
KPH
gust
KPH
rain 1hr
cm
rain 24hr
cm
rain mn
cm
humidity
%
barometer
mb
20260507174607 12 45 9.7 24.1 0.00 0.00 0.00 71 1011.6
20260507174407 12 45 9.7 24.1 0.00 0.00 0.00 71 1011.5
20260507174207 12 45 9.7 24.1 0.00 0.00 0.00 70 1011.5
20260507173808 12 45 8.0 17.7 0.00 0.00 0.00 71 1011.5
20260507173609 12 45 8.0 17.7 0.00 0.00 0.00 70 1011.5
20260507173408 12 45 9.7 17.7 0.00 0.00 0.00 70 1011.5
20260507173208 12 46 9.7 17.7 0.00 0.00 0.00 70 1011.5
20260507173008 12 45 9.7 17.7 0.00 0.00 0.00 70 1011.5
20260507172808 12 46 9.7 17.7 0.00 0.00 0.00 70 1011.5
20260507172407 12 46 9.7 17.7 0.00 0.00 0.00 70 1011.6
20260507172207 12 45 9.7 22.5 0.00 0.00 0.00 70 1011.5
20260507172007 12 46 9.7 22.5 0.00 0.00 0.00 70 1011.5
20260507171807 12 46 9.7 22.5 0.00 0.00 0.00 70 1011.4
20260507171607 12 45 9.7 22.5 0.00 0.00 0.00 70 1011.4
20260507171407 12 46 9.7 22.5 0.00 0.00 0.00 70 1011.5
20260507171207 12 46 9.7 19.3 0.00 0.00 0.00 69 1011.5
20260507170808 12 46 9.7 20.9 0.00 0.00 0.00 69 1011.4
20260507170608 12 46 9.7 20.9 0.00 0.00 0.00 68 1011.3
20260507170407 13 45 9.7 20.9 0.00 0.00 0.00 68 1011.3
20260507170208 13 46 9.7 20.9 0.00 0.00 0.00 68 1011.3
20260507170008 13 46 9.7 20.9 0.00 0.00 0.00 67 1011.3
20260507165808 13 46 8.0 17.7 0.00 0.00 0.00 67 1011.4
20260507165608 13 46 8.0 17.7 0.00 0.00 0.00 66 1011.5
20260507165408 13 45 8.0 17.7 0.00 0.00 0.00 65 1011.5
20260507165208 13 45 6.4 16.1 0.00 0.00 0.00 64 1011.4
20260507164808 13 46 6.4 12.9 0.00 0.00 0.00 62 1011.4
20260507164608 13 46 6.4 12.9 0.00 0.00 0.00 61 1011.3
20260507164208 13 46 6.4 11.3 0.00 0.00 0.00 62 1011.4
20260507164007 13 46 4.8 9.7 0.00 0.00 0.00 62 1011.4
20260507163807 13 46 4.8 9.7 0.00 0.00 0.00 62 1011.3
20260507163607 13 46 4.8 9.7 0.00 0.00 0.00 61 1011.3
20260507163407 13 45 4.8 8.0 0.00 0.00 0.00 60 1011.3
20260507163207 13 45 6.4 8.0 0.00 0.00 0.00 62 1011.3
20260507163007 13 45 6.4 8.0 0.00 0.00 0.00 61 1011.3
20260507162607 13 45 9.7 14.5 0.00 0.00 0.00 60 1011.2
20260507162407 13 45 9.7 20.9 0.00 0.00 0.00 60 1011.3
20260507162007 13 45 9.7 20.9 0.00 0.00 0.00 61 1011.2
20260507161807 13 45 9.7 20.9 0.00 0.00 0.00 59 1011.2
20260507161608 13 45 9.7 20.9 0.00 0.00 0.00 59 1011.2
20260507161408 13 45 8.0 20.9 0.00 0.00 0.00 59 1011.1
20260507161208 13 45 8.0 20.9 0.00 0.00 0.00 58 1011.1
20260507160808 14 45 6.4 17.7 0.00 0.00 0.00 59 1011.1
20260507160607 14 46 6.4 17.7 0.00 0.00 0.00 59 1011.0
20260507160407 14 45 6.4 17.7 0.00 0.00 0.00 59 1011.1
20260507160207 14 45 6.4 17.7 0.00 0.00 0.00 59 1011.1
20260507160007 14 45 8.0 12.9 0.00 0.00 0.00 59 1011.0
20260507155808 14 45 8.0 17.7 0.00 0.00 0.00 59 1011.0
20260507155608 14 46 8.0 17.7 0.00 0.00 0.00 59 1011.1
20260507155408 14 46 9.7 17.7 0.00 0.00 0.00 58 1011.1
20260507155208 14 46 9.7 17.7 0.00 0.00 0.00 58 1011.1
20260507154808 14 46 9.7 17.7 0.00 0.00 0.00 57 1011.1
20260507154407 14 46 9.7 19.3 0.00 0.00 0.00 57 1011.1
20260507154208 14 45 9.7 19.3 0.00 0.00 0.00 55 1011.1
20260507154009 14 45 9.7 19.3 0.00 0.00 0.00 55 1011.0
20260507153808 14 46 9.7 19.3 0.00 0.00 0.00 55 1011.0
20260507153608 14 46 9.7 19.3 0.00 0.00 0.00 58 1011.0
20260507153408 14 46 8.0 19.3 0.00 0.00 0.00 57 1011.0
20260507152808 14 45 8.0 17.7 0.00 0.00 0.00 57 1011.0
20260507152608 14 46 8.0 17.7 0.00 0.00 0.00 58 1011.0
20260507152408 14 46 8.0 17.7 0.00 0.00 0.00 57 1011.1
20260507151807 14 45 9.7 17.7 0.00 0.00 0.00 57 1011.0
20260507151607 14 45 9.7 17.7 0.00 0.00 0.00 56 1011.0
20260507151407 14 45 9.7 17.7 0.00 0.00 0.00 56 1010.9
20260507151207 14 46 9.7 17.7 0.00 0.00 0.00 55 1010.9
20260507151008 15 46 8.0 17.7 0.00 0.00 0.00 54 1010.8
20260507150807 15 46 8.0 17.7 0.00 0.00 0.00 53 1010.9
20260507150608 15 45 8.0 17.7 0.00 0.00 0.00 53 1010.9
20260507150407 15 46 9.7 17.7 0.00 0.00 0.00 53 1010.8
20260507150207 15 45 9.7 14.5 0.00 0.00 0.00 53 1010.8
20260507150007 15 45 11.3 16.1 0.00 0.00 0.00 54 1010.9
20260507145808 15 46 12.9 16.1 0.00 0.00 0.00 56 1010.9
20260507145608 14 45 12.9 22.5 0.00 0.00 0.00 55 1010.9
20260507145208 14 45 12.9 22.5 0.00 0.00 0.00 54 1010.9
20260507145008 15 45 12.9 22.5 0.00 0.00 0.00 53 1010.9
20260507144808 15 45 11.3 24.1 0.00 0.00 0.00 54 1010.9
20260507144608 15 45 11.3 24.1 0.00 0.00 0.00 54 1011.0
20260507144408 15 46 9.7 24.1 0.00 0.00 0.00 54 1011.2
20260507144208 15 46 8.0 24.1 0.00 0.00 0.00 53 1011.1
20260507144007 15 46 8.0 24.1 0.00 0.00 0.00 51 1011.1
20260507143807 15 46 9.7 20.9 0.00 0.00 0.00 54 1011.0
20260507143607 15 45 9.7 20.9 0.00 0.00 0.00 54 1010.9
20260507143208 15 45 9.7 17.7 0.00 0.00 0.00 56 1011.2
20260507143008 15 46 9.7 17.7 0.00 0.00 0.00 54 1011.1
20260507142808 14 46 9.7 17.7 0.00 0.00 0.00 56 1011.1
20260507142608 14 46 9.7 17.7 0.00 0.00 0.00 56 1011.1
20260507142408 14 46 8.0 17.7 0.00 0.00 0.00 56 1011.2
20260507142208 14 45 8.0 16.1 0.00 0.00 0.00 55 1011.2
20260507142008 14 46 8.0 17.7 0.00 0.00 0.00 56 1011.2
20260507141808 14 45 8.0 17.7 0.00 0.00 0.00 55 1011.2
20260507141608 14 46 8.0 17.7 0.00 0.00 0.00 54 1011.1
20260507141419 14 46 8.0 17.7 0.00 0.00 0.00 53 1011.2
20260507141208 15 46 6.4 17.7 0.00 0.00 0.00 53 1011.1
20260507141008 15 46 8.0 11.3 0.00 0.00 0.00 56 1011.2
20260507140807 15 45 8.0 14.5 0.00 0.00 0.00 56 1011.2
20260507140608 14 46 8.0 14.5 0.00 0.00 0.00 57 1011.2
20260507140408 14 46 8.0 14.5 0.00 0.00 0.00 51 1011.2
20260507140208 14 46 8.0 17.7 0.00 0.00 0.00 50 1011.2
20260507140008 14 46 8.0 17.7 0.00 0.00 0.00 49 1011.2
20260507135808 14 46 9.7 17.7 0.00 0.00 0.00 51 1011.2
20260507135608 14 46 9.7 17.7 0.00 0.00 0.00 49 1011.3
20260507135208 14 46 9.7 14.5 0.00 0.00 0.00 51 1011.3
20260507135008 14 46 9.7 16.1 0.00 0.00 0.00 50 1011.3
20260507134807 14 46 9.7 22.5 0.00 0.00 0.00 49 1011.3
20260507134607 14 46 9.7 22.5 0.00 0.00 0.00 52 1011.2
20260507134407 14 45 9.7 22.5 0.00 0.00 0.00 52 1011.3
20260507134207 14 46 9.7 22.5 0.00 0.00 0.00 50 1011.3
20260507134007 14 45 11.3 22.5 0.00 0.00 0.00 52 1011.2
20260507133607 14 46 12.9 22.5 0.00 0.00 0.00 54 1011.4
20260507133407 14 46 12.9 22.5 0.00 0.00 0.00 53 1011.4
20260507133207 14 45 12.9 22.5 0.00 0.00 0.00 55 1011.3
20260507133007 14 46 11.3 22.5 0.00 0.00 0.00 54 1011.4
20260507132808 14 46 11.3 22.5 0.00 0.00 0.00 57 1011.4
20260507132408 14 45 9.7 19.3 0.00 0.00 0.00 59 1011.5
20260507132208 14 45 9.7 19.3 0.00 0.00 0.00 57 1011.5
20260507132008 13 46 11.3 19.3 0.00 0.00 0.00 59 1011.5
20260507131808 13 45 11.3 19.3 0.00 0.00 0.00 57 1011.5
20260507131608 13 46 11.3 19.3 0.00 0.00 0.00 57 1011.5
20260507131408 13 46 11.3 24.1 0.00 0.00 0.00 57 1011.5
20260507131208 13 46 11.3 24.1 0.00 0.00 0.00 58 1011.4
20260507131007 13 46 11.3 24.1 0.00 0.00 0.00 56 1011.5
20260507130808 13 45 11.3 24.1 0.00 0.00 0.00 57 1011.4
20260507130607 13 46 9.7 25.7 0.00 0.00 0.00 58 1011.4
20260507130408 13 45 9.7 25.7 0.00 0.00 0.00 58 1011.5
20260507130207 13 45 9.7 25.7 0.00 0.00 0.00 57 1011.5
20260507130007 13 46 9.7 25.7 0.00 0.00 0.00 56 1011.4
20260507125808 13 45 9.7 25.7 0.00 0.00 0.00 57 1011.5
20260507125607 14 46 9.7 19.3 0.00 0.00 0.00 57 1011.5
20260507125208 14 45 9.7 19.3 0.00 0.00 0.00 58 1011.4
20260507125008 14 46 8.0 19.3 0.00 0.00 0.00 58 1011.4
20260507124807 15 45 8.0 19.3 0.00 0.00 0.00 60 1011.5
20260507124607 15 46 8.0 19.3 0.00 0.00 0.00 59 1011.4
20260507124408 15 46 8.0 16.1 0.00 0.00 0.00 59 1011.5
20260507124208 15 46 8.0 16.1 0.00 0.00 0.00 61 1011.5
20260507124007 15 45 8.0 16.1 0.00 0.00 0.00 64 1011.5
20260507123808 14 46 9.7 16.1 0.00 0.00 0.00 69 1011.4
20260507123608 13 45 11.3 16.1 0.00 0.00 0.00 69 1011.5
20260507123208 13 46 12.9 17.7 0.00 0.00 0.00 65 1011.6
20260507122808 13 46 12.9 20.9 0.00 0.00 0.00 64 1011.7
20260507122607 13 46 12.9 20.9 0.00 0.00 0.00 64 1011.6
20260507122407 13 45 12.9 20.9 0.00 0.00 0.00 64 1011.6
20260507122207 14 45 12.9 20.9 0.00 0.00 0.00 63 1011.7
20260507122007 14 45 12.9 20.9 0.00 0.00 0.00 63 1011.7
20260507121807 15 45 12.9 19.3 0.00 0.00 0.00 62 1011.6
20260507121607 15 45 12.9 19.3 0.00 0.00 0.00 62 1011.6
20260507121407 15 45 12.9 24.1 0.00 0.00 0.00 68 1011.7
20260507121008 15 45 12.9 24.1 0.00 0.00 0.00 67 1011.7
20260507120808 14 45 12.9 24.1 0.00 0.00 0.00 63 1011.8
20260507120408 15 46 14.5 22.5 0.00 0.00 0.00 67 1011.8
20260507115807 14 45 14.5 24.1 0.00 0.00 0.00 71 1011.9
20260507115608 14 45 14.5 24.1 0.00 0.00 0.00 74 1012.0
20260507115408 13 45 14.5 24.1 0.00 0.00 0.00 74 1012.0
20260507115007 13 45 16.1 24.1 0.00 0.00 0.00 75 1011.9
20260507114607 12 45 16.1 22.5 0.00 0.00 0.00 74 1012.0
20260507114407 12 45 16.1 22.5 0.00 0.00 0.00 73 1012.1
20260507114208 12 45 16.1 25.7 0.00 0.00 0.00 73 1012.1
20260507114008 12 45 17.7 25.7 0.00 0.00 0.00 72 1012.1
20260507113808 12 45 17.7 25.7 0.00 0.00 0.00 73 1012.0
20260507113608 12 45 17.7 25.7 0.00 0.00 0.00 72 1012.1
20260507113407 12 45 16.1 27.4 0.00 0.00 0.00 71 1012.1
20260507113207 12 45 16.1 27.4 0.00 0.00 0.00 71 1012.1
20260507112807 13 46 16.1 27.4 0.00 0.00 0.00 68 1012.1
20260507112407 13 46 14.5 25.7 0.00 0.00 0.00 69 1012.2
20260507112208 13 46 14.5 25.7 0.00 0.00 0.00 72 1012.1
20260507112008 13 45 14.5 25.7 0.00 0.00 0.00 71 1012.1
20260507111808 13 45 14.5 25.7 0.00 0.00 0.00 70 1012.1
20260507111408 13 45 14.5 19.3 0.00 0.00 0.00 65 1012.0
20260507111008 14 45 14.5 24.1 0.00 0.00 0.00 68 1012.1
20260507110607 13 45 14.5 24.1 0.00 0.00 0.00 70 1012.1
20260507110407 13 45 14.5 24.1 0.00 0.00 0.00 69 1012.0
20260507110208 13 45 14.5 24.1 0.00 0.00 0.00 72 1012.0
20260507110007 13 46 14.5 22.5 0.00 0.00 0.00 73 1012.1
20260507105808 12 45 14.5 22.5 0.00 0.00 0.00 72 1012.0
20260507105408 12 45 14.5 22.5 0.00 0.00 0.00 70 1012.1
20260507105208 12 45 14.5 20.9 0.00 0.00 0.00 71 1012.1
20260507105008 12 46 14.5 20.9 0.00 0.00 0.00 71 1012.1
20260507104408 12 45 12.9 20.9 0.00 0.00 0.00 72 1012.0
20260507104208 12 45 12.9 19.3 0.00 0.00 0.00 71 1012.1
20260507103807 12 46 11.3 20.9 0.00 0.00 0.00 72 1012.3
20260507103607 12 45 11.3 20.9 0.00 0.00 0.00 73 1012.3
20260507103407 12 46 11.3 20.9 0.00 0.00 0.00 74 1012.3
20260507103007 12 45 11.3 17.7 0.00 0.00 0.00 76 1012.2
20260507102807 12 45 11.3 20.9 0.00 0.00 0.00 76 1012.3
20260507102607 12 45 11.3 22.5 0.00 0.00 0.00 76 1012.3
20260507102407 12 45 11.3 22.5 0.00 0.00 0.00 76 1012.4
20260507102008 11 46 9.7 24.1 0.00 0.00 0.00 77 1012.3
20260507101608 11 45 9.7 24.1 0.00 0.00 0.00 79 1012.4
20260507101407 11 46 9.7 24.1 0.00 0.00 0.00 79 1012.3
20260507101207 11 45 9.7 24.1 0.00 0.00 0.00 79 1012.3
20260507101007 11 45 9.7 17.7 0.00 0.00 0.00 80 1012.4